This is the latest recevied weather packets stored in our database for station/object KD5FHA. If no packets are shown the sender has not sent any weather packets the latest 10 day(s).
| Time | Temp. | Humidity | Pressure | Rain* | Wind** | Luminosity | Snow |
|---|---|---|---|---|---|---|---|
| 1778074714 | 12.78° C | 78% | 1014.4 hPa | 0 mm | - | 63 W/m² | - |
| 1778074411 | 13.33° C | 77% | 1014.3 hPa | 0 mm | - | 74 W/m² | - |
| 1778074107 | 13.33° C | 77% | 1014.1 hPa | 0 mm | - | 84 W/m² | - |
| 1778073805 | 13.33° C | 76% | 1014.1 hPa | 0 mm | - | 78 W/m² | - |
| 1778073503 | 13.33° C | 77% | 1014.2 hPa | 0 mm | - | 67 W/m² | - |
| 1778073199 | 13.33° C | 76% | 1013.8 hPa | 0 mm | - | 66 W/m² | - |
| 1778072896 | 13.33° C | 77% | 1013.7 hPa | 0 mm | - | 70 W/m² | - |
| 1778072592 | 13.33° C | 77% | 1013.6 hPa | 0 mm | - | 43 W/m² | - |
| 1778072290 | 13.33° C | 77% | 1013.6 hPa | 0 mm | - | 48 W/m² | - |
| 1778071988 | 13.33° C | 77% | 1013.5 hPa | 0 mm | - | 46 W/m² | - |
| 1778071687 | 13.33° C | 77% | 1013.5 hPa | 0 mm | - | 44 W/m² | - |
| 1778071383 | 13.33° C | 77% | 1013.6 hPa | 0 mm | - | 42 W/m² | - |
| 1778071081 | 13.33° C | 77% | 1013.3 hPa | 0 mm | - | 30 W/m² | - |
| 1778070779 | 13.33° C | 76% | 1013.4 hPa | 0 mm | - | 27 W/m² | - |
| 1778070476 | 13.33° C | 76% | 1013.4 hPa | 0 mm | - | 30 W/m² | - |
| 1778070173 | 13.89° C | 76% | 1013.1 hPa | 0 mm | - | 27 W/m² | - |
| 1778069871 | 13.89° C | 76% | 1013 hPa | 0 mm | - | 20 W/m² | - |
| 1778069568 | 13.89° C | 77% | 1013 hPa | 0 mm | - | 14 W/m² | - |
| 1778069265 | 13.89° C | 76% | 1013.1 hPa | 0 mm | - | 12 W/m² | - |
| 1778068963 | 13.89° C | 77% | 1012.9 hPa | 0 mm | - | 13 W/m² | - |
| 1778068660 | 13.89° C | 77% | 1013 hPa | 0 mm | - | 8 W/m² | - |
| 1778068358 | 13.89° C | 77% | 1013 hPa | 0 mm | - | 4 W/m² | - |
| 1778068056 | 13.89° C | 77% | 1012.9 hPa | 0 mm | - | 2 W/m² | - |
| 1778067753 | 13.89° C | 77% | 1012.8 hPa | 0 mm | - | 2 W/m² | - |
| 1778067451 | 13.89° C | 77% | 1012.9 hPa | 0 mm | - | 1 W/m² | - |
* Rain latest hour (hover to see other rain measurements)
** Current wind speed in m/s (hover to see current wind gust speed)